Temperature
23 23 22 22 24 25 27 28 29 29 29 28 28 27 26 25 24 22 21 21 20 20 20 20 19 19 19 19 19 19 19 19 19 19 19 19 19 19 19 19 19 19 19 19 19 19 18 18 18
23 22 23 24 25 26 27 29 29 29 29 28 28 27 26 24 23 22 21 20 20 20 19 19 19 19 19 19 19 19 19 19 19 19 19 19 19 19 19 19 19 19 19 19 19 19 19 18 18
23 23 25 26 27 28 28 30 30 30 29 29 27 26 25 24 22 21 21 21 20 19 20 20 19 19 19 19 19 19 19 19 19 19 19 19 19 19 19 19 19 19 19 19 19 19 19 18 18
23 25 26 27 28 30 30 30 31 30 29 28 27 26 24 23 22 21 21 21 20 20 20 20 19 19 19 19 19 19 19 19 19 19 19 19 19 19 19 19 19 19 19 19 19 19 19 19 19
25 26 26 27 29 30 31 31 30 30 29 28 27 25 23 22 22 21 21 21 20 20 20 20 19 19 19 19 19 19 19 19 19 19 19 19 19 19 19 19 19 19 19 19 19 19 19 19 19
26 27 27 28 30 31 31 31 30 30 29 28 26 25 23 22 22 22 21 21 20 20 19 20 19 19 19 19 19 19 19 19 19 19 19 19 19 19 19 19 19 19 19 19 19 19 19 19 19
27 28 29 30 30 30 31 30 30 30 29 28 27 25 23 22 22 22 21 21 20 20 20 19 19 19 19 19 19 19 19 19 19 19 19 19 19 19 19 19 19 19 19 19 19 19 19 19 19
29 30 30 31 30 30 31 31 30 29 29 28 27 25 23 22 22 22 21 21 20 20 20 20 19 19 19 19 19 19 19 19 19 19 19 19 19 19 19 19 19 19 19 19 19 19 19 19 19
30 30 30 31 31 31 31 31 30 29 28 27 26 25 23 23 22 22 21 21 21 21 20 20 20 19 19 19 19 19 19 19 19 19 19 19 19 19 19 19 19 19 19 19 19 19 19 19 19
31 30 31 32 32 32 31 31 30 29 28 27 26 25 24 23 22 22 22 21 21 21 21 20 20 20 19 19 19 19 19 19 19 19 19 19 19 19 19 19 19 19 19 19 19 19 19 19 19
32 31 33 33 32 32 32 31 30 29 28 27 26 25 24 24 23 22 22 21 21 21 21 20 20 20 20 19 19 19 19 19 19 19 19 19 19 19 19 19 19 19 19 19 19 19 19 19 19
33 33 33 33 32 32 31 31 30 29 28 27 26 25 24 24 23 22 22 21 21 21 21 20 20 20 20 20 19 19 19 19 19 19 19 19 19 19 19 19 19 19 19 19 19 19 19 19 19
33 33 33 32 32 31 31 30 29 29 28 27 26 25 25 24 23 23 22 21 21 21 21 20 20 20 19 20 20 20 19 19 19 19 19 19 19 19 19 19 19 19 19 19 19 19 19 19 19
33 33 33 32 32 31 31 30 30 29 28 27 26 25 25 24 23 23 22 21 21 21 20 20 20 20 19 20 20 20 20 19 19 19 19 19 19 19 19 19 19 19 19 19 19 19 19 19 19
32 33 33 33 32 32 31 30 30 29 28 28 27 26 25 24 24 23 22 22 21 21 20 20 20 20 19 19 20 20 20 19 19 19 19 19 19 19 19 19 19 19 19 19 19 19 19 19 19
32 32 31 32 33 32 31 29 31 30 29 28 27 26 25 24 24 23 22 22 21 21 20 20 20 20 19 19 19 20 20 19 19 19 19 19 19 19 19 19 19 19 19 19 19 19 19 19 19
31 30 31 32 33 33 31 30 31 30 30 29 28 27 26 25 24 23 23 22 21 21 20 20 20 20 20 20 19 20 20 19 19 19 19 19 19 19 19 19 19 19 19 19 19 19 19 19 19
30 31 31 32 33 33 32 31 31 31 30 30 29 27 26 25 25 24 23 22 21 21 20 20 20 20 20 20 19 19 19 19 19 19 19 19 19 19 19 19 19 19 19 19 19 19 19 19 19
32 32 31 32 33 33 32 31 32 32 31 30 29 28 27 26 25 24 23 22 21 21 20 20 20 20 20 19 19 19 19 19 19 19 19 19 19 19 19 19 19 19 19 19 19 19 19 19 19
32 31 32 32 34 33 32 32 32 32 32 31 30 29 27 26 25 24 23 23 22 21 21 20 20 20 20 20 20 19 20 20 19 19 19 19 19 19 19 19 19 19 19 19 19 19 19 19 19
33 32 32 33 33 34 32 31 32 32 32 31 30 30 28 27 26 25 24 23 22 22 21 21 20 20 20 20 20 20 20 20 20 20 19 19 19 19 19 19 19 19 19 19 19 19 19 19 19
32 34 34 33 33 32 32 30 31 31 31 32 31 30 29 28 27 25 24 24 23 22 21 21 21 20 20 20 20 20 20 20 20 20 20 19 19 19 19 19 19 19 19 19 19 19 19 19 19
33 34 33 33 32 32 32 31 30 31 31 31 32 31 30 29 27 26 25 24 24 23 22 21 21 21 20 20 20 20 20 20 20 20 20 19 19 19 19 19 19 19 19 19 19 19 19 19 19
34 34 33 33 32 31 32 31 30 31 32 32 32 31 30 29 28 27 26 24 24 23 22 21 21 21 20 20 20 20 20 20 20 20 20 20 19 19 19 19 19 19 19 19 19 19 19 19 19
34 32 30 30 30 31 33 32 31 33 34 33 32 31 30 29 28 27 26 25 24 23 23 22 21 21 20 20 20 20 20 20 20 20 20 20 20 19 19 19 19 19 19 19 19 19 19 19 19
33 33 30 29 29 31 32 32 33 34 34 33 33 32 31 30 29 27 26 25 24 24 23 22 21 21 21 20 20 20 20 20 20 20 20 20 20 20 20 20 19 19 19 19 19 19 19 19 19
33 33 34 32 31 30 31 32 33 34 34 34 33 32 31 30 29 28 27 26 25 24 23 22 22 21 21 21 20 20 20 20 20 20 20 20 20 20 20 20 19 19 19 19 19 19 19 19 19
34 34 33 32 30 29 30 31 31 32 33 33 33 32 31 30 29 28 27 26 25 24 24 23 22 22 21 21 20 20 20 20 20 20 20 20 20 20 20 20 19 19 19 19 19 19 19 19 19
33 33 32 32 31 30 28 29 32 32 33 33 33 32 31 31 30 29 28 26 25 25 24 23 22 22 21 21 20 20 20 20 20 20 20 19 19 19 19 19 19 19 19 19 19 19 18 18 18
34 33 33 31 30 31 30 30 33 33 33 33 32 32 31 31 30 29 28 27 26 25 24 23 22 22 21 21 21 20 20 20 20 20 19 19 19 19 19 19 19 19 18 18 18 18 18 18 18
Wind_Speed
11 11 9 5 4 2 6 9 11 11 11 12 12 11 13 13 9 8 7 10 13 15 17 16 16 16 15 14 13 13 13 13 13 13 14 14 14 14 14 13 12 12 11 11 11 10 9 9 8
10 11 8 4 2 2 8 9 11 11 10 11 12 13 13 13 12 10 8 11 14 15 15 16 16 15 14 13 13 13 13 13 13 13 13 13 13 13 13 12 11 11 11 10 9 9 9 8 7
11 13 6 3 1 6 9 10 11 10 10 10 12 12 10 9 10 7 8 13 14 14 15 15 16 15 14 13 12 13 13 13 13 12 13 12 11 11 11 11 10 10 10 9 9 8 8 6 6
7 5 4 2 5 10 11 10 10 11 11 11 11 10 11 10 9 10 11 13 14 14 14 14 15 15 14 13 13 13 13 13 12 12 12 12 11 10 10 11 10 9 9 8 8 7 7 5 4
7 3 2 1 9 11 11 11 11 12 12 13 14 13 12 12 13 12 12 13 13 13 14 14 14 14 14 13 13 13 13 13 12 12 12 11 10 9 9 9 9 8 8 7 6 6 5 4 4
4 2 1 3 11 11 10 10 11 12 12 13 14 13 10 11 12 11 11 11 12 12 13 14 14 15 14 13 13 13 13 12 11 11 11 10 9 9 8 8 8 7 6 6 5 5 4 4 3
4 3 3 7 10 10 11 11 11 11 11 12 12 12 9 10 10 11 11 10 11 11 11 12 13 13 14 13 13 13 12 11 10 10 9 9 9 9 8 8 8 7 6 5 5 5 4 3 2
4 2 4 7 10 10 11 11 12 12 12 10 10 9 9 10 10 11 10 9 9 9 10 11 13 13 13 13 13 13 12 11 10 9 8 8 9 9 9 8 7 6 5 5 4 4 4 4 3
3 2 5 7 8 9 10 11 12 12 13 14 15 15 14 13 12 11 10 8 7 8 8 8 10 10 12 13 13 13 13 11 10 8 8 8 7 9 9 9 8 7 6 5 5 5 6 5 5
1 3 7 8 9 9 10 11 11 11 13 15 16 16 15 13 12 11 10 9 9 9 9 9 8 8 8 10 11 11 10 10 8 8 8 7 6 6 8 10 10 8 8 7 7 8 7 7 5
2 5 8 10 10 9 10 10 10 11 12 13 14 14 12 12 11 10 10 9 9 8 9 9 9 7 7 6 7 6 7 7 7 6 6 5 5 5 6 7 8 8 8 7 7 7 5 5 3
4 6 8 9 8 10 10 10 11 12 13 14 14 13 12 11 10 10 10 9 9 8 9 9 9 7 6 5 4 5 5 5 5 5 4 4 3 3 4 4 5 5 5 3 3 3 3 3 2
4 6 8 8 10 9 10 11 10 13 14 14 14 13 11 11 10 10 10 10 9 8 8 9 9 7 6 4 2 5 5 4 5 4 4 4 3 2 2 2 2 3 3 2 1 1 1 1 1
2 4 6 7 8 7 9 9 9 12 13 14 13 11 11 10 10 10 10 10 9 8 8 8 9 8 6 4 2 3 4 4 5 4 4 4 4 3 2 2 1 1 1 2 2 1 1 1 1
1 2 4 6 6 6 7 8 8 11 12 12 13 11 10 10 10 10 9 9 9 8 8 8 9 8 6 5 2 4 4 4 4 5 5 3 3 3 2 2 1 1 1 2 1 1 1 1 1
3 3 2 4 6 6 4 7 9 12 11 11 12 12 11 10 10 9 10 9 9 9 8 6 7 9 6 4 2 3 3 3 3 5 5 3 2 3 2 1 1 1 1 1 1 1 1 1 1
6 6 4 4 5 6 5 6 9 11 11 11 11 11 11 10 10 10 10 10 10 9 7 6 6 7 6 5 3 3 3 3 3 4 4 3 2 1 1 1 1 1 1 1 1 2 0 1 1
4 3 2 3 4 4 6 7 9 10 11 11 11 12 11 11 10 11 11 11 10 9 8 7 6 6 5 4 3 2 3 2 2 4 4 3 2 2 1 2 1 1 1 1 1 2 0 1 1
5 3 1 1 3 3 3 7 9 10 10 11 11 12 12 11 12 12 11 11 11 9 8 7 6 5 3 3 2 2 2 2 2 3 4 3 2 1 0 1 1 1 1 1 1 1 1 1 0
4 4 3 3 4 3 3 5 8 11 11 10 11 12 13 13 12 12 11 11 11 10 9 8 7 6 4 3 2 2 2 2 2 2 4 3 2 2 2 1 0 1 1 1 0 0 0 1 0
6 6 5 4 4 5 4 4 7 10 10 11 11 12 14 14 15 13 12 12 11 11 10 8 8 7 6 5 3 2 2 1 2 2 3 2 2 1 1 1 0 1 1 1 1 0 0 1 1
6 6 7 7 5 4 5 3 5 7 9 10 11 12 13 14 15 14 13 12 12 12 11 9 8 7 6 5 4 4 3 2 2 2 3 3 3 2 2 1 0 1 1 1 1 1 1 1 2
8 6 7 9 9 7 5 3 5 8 10 11 10 10 12 14 15 15 14 12 12 12 11 10 8 7 6 5 5 4 3 3 2 2 3 3 3 3 2 2 1 1 0 0 1 1 1 1 2
8 7 8 9 9 8 6 4 4 6 9 12 12 10 10 11 14 14 14 13 11 11 11 11 9 7 6 6 5 4 3 3 2 3 3 3 3 3 3 3 2 1 1 0 0 1 1 1 2
8 8 5 6 6 6 5 3 4 4 5 9 12 13 13 12 13 13 14 13 12 11 11 11 10 8 7 6 5 5 4 4 4 4 4 3 3 3 4 3 3 2 1 1 1 1 2 2 2
9 10 8 5 5 5 5 2 4 6 6 6 10 12 12 12 12 13 13 13 12 12 11 11 11 9 8 7 6 5 4 4 4 4 3 3 2 3 4 4 3 2 2 2 2 2 2 1 2
10 10 11 8 8 6 3 3 4 6 7 7 8 10 11 12 13 13 13 13 13 13 12 11 11 9 9 8 7 6 5 5 4 4 4 3 2 3 4 4 3 3 3 2 1 2 2 1 2
11 10 8 6 5 5 4 2 2 5 5 6 7 8 10 11 12 13 13 13 12 12 12 11 11 10 8 8 8 7 6 5 4 3 4 2 2 1 3 3 4 4 3 3 3 2 2 2 2
11 11 8 7 6 5 4 2 2 3 5 5 6 7 8 10 11 11 12 12 12 12 12 11 11 10 9 8 7 6 6 6 5 4 3 3 2 2 2 3 3 3 3 2 2 3 2 2 2
12 11 11 8 7 7 5 4 3 2 3 4 4 5 6 6 8 10 10 11 11 11 12 11 10 11 10 9 8 7 6 5 5 5 4 4 4 3 3 3 3 3 3 2 3 3 2 2 2
Wind_Direction
200 211 215 234 258 254 50 55 58 57 56 55 54 61 57 50 63 92 109 100 104 109 112 108 105 105 105 102 100 99 100 99 99 100 100 100 101 102 102 103 104 103 103 103 102 103 102 98 98
226 222 230 249 253 42 60 61 64 61 64 69 64 67 69 67 76 98 103 103 107 108 109 107 108 108 108 107 105 103 102 101 102 104 105 104 103 103 104 107 105 105 105 104 105 104 101 100 103
250 253 255 244 11 56 58 63 68 71 71 73 72 60 60 76 83 95 105 109 105 106 107 111 114 112 111 110 109 108 105 104 105 107 107 108 107 105 105 107 106 104 103 104 105 107 107 108 104
250 249 252 277 49 58 66 73 71 70 70 70 75 72 70 77 91 103 107 108 109 111 112 115 116 115 113 113 113 111 108 107 109 110 111 110 113 110 108 109 108 107 105 104 106 109 111 110 107
246 270 281 20 71 64 63 69 72 72 70 74 80 84 80 89 98 104 109 110 109 109 111 118 120 122 120 118 117 116 115 114 113 113 113 114 115 114 112 112 112 110 108 106 109 111 113 113 113
264 259 268 70 72 66 66 65 72 76 78 85 89 91 90 104 106 106 104 107 111 113 116 121 126 128 126 123 121 120 121 119 119 119 121 125 127 123 121 121 120 120 119 117 119 123 121 121 123
267 304 15 71 77 72 68 69 75 77 74 80 93 97 107 108 111 110 104 102 109 117 125 133 132 130 131 129 129 128 128 127 126 126 132 139 142 139 135 134 134 135 132 130 131 134 131 137 163
251 310 39 61 75 75 74 74 77 76 74 82 92 95 113 119 116 108 107 108 112 120 130 136 138 140 140 136 140 140 140 138 136 139 148 155 158 157 157 151 147 150 154 156 156 159 162 173 205
289 320 52 66 77 80 83 83 83 83 82 76 81 100 115 121 116 112 109 106 111 119 127 132 135 143 142 138 143 150 149 151 149 157 167 169 171 167 165 154 160 170 178 181 185 193 198 205 217
263 49 62 70 82 87 87 88 94 91 85 89 90 99 113 115 115 115 114 113 113 121 126 127 126 130 135 132 141 151 149 155 164 161 176 178 171 156 142 158 174 184 191 198 205 215 218 220 211
69 60 72 79 87 92 88 85 89 93 96 101 106 113 114 114 114 113 111 112 112 118 116 117 120 124 121 123 140 144 137 151 155 157 170 156 148 151 149 158 173 186 195 206 198 206 215 217 205
86 78 78 82 86 86 83 80 82 88 97 107 113 117 116 112 112 112 112 111 108 106 106 110 110 111 111 117 126 134 134 150 143 155 157 143 142 149 149 164 179 183 194 196 185 182 196 216 183
81 91 91 88 88 87 89 87 90 96 103 109 114 116 117 117 115 112 112 113 112 109 106 104 106 107 108 99 123 123 130 137 126 129 133 142 143 147 137 159 180 185 173 164 161 160 122 91 72
80 94 105 105 104 96 97 105 104 109 114 115 117 119 122 119 120 119 116 115 115 114 109 110 113 107 109 115 109 113 113 118 124 125 125 137 135 134 146 159 178 156 163 158 158 136 115 104 83
180 140 138 130 127 118 113 112 118 129 127 125 124 123 122 122 121 124 124 125 126 121 114 117 120 119 117 119 129 120 119 126 115 117 118 119 124 133 141 148 164 163 165 131 105 86 115 146 139
239 244 191 152 138 131 132 124 135 141 135 133 133 134 132 129 131 132 131 128 127 125 123 128 125 124 121 118 104 99 108 107 113 122 121 115 121 148 154 142 136 117 108 116 130 143 130 133 152
231 229 199 157 150 144 139 132 140 148 144 144 145 143 143 142 141 139 136 134 129 126 128 121 111 119 128 128 129 115 104 102 123 128 128 134 142 133 151 107 87 124 107 120 161 102 137 186 140
257 239 201 160 164 160 139 139 149 154 152 153 152 150 151 151 151 148 143 139 137 136 133 128 126 128 136 131 131 121 113 129 131 120 125 136 151 161 188 123 109 132 107 91 88 104 173 236 260
262 282 253 192 175 190 140 149 159 161 161 157 159 157 155 154 153 151 152 149 145 144 141 139 144 139 142 132 140 141 142 150 141 137 135 150 163 137 257 79 108 83 109 117 102 108 213 233 145
248 264 245 216 198 193 183 179 165 167 168 166 168 162 161 158 154 154 158 156 155 153 149 149 152 156 160 154 168 166 162 171 154 132 136 159 146 164 174 110 177 113 104 105 136 72 357 306 134
257 253 253 251 238 210 193 194 174 169 170 169 173 168 166 165 162 165 168 168 163 160 162 166 164 165 173 165 177 166 154 214 132 141 140 160 154 152 352 131 284 73 149 135 220 265 207 250 290
261 265 268 267 252 231 210 191 187 174 178 176 178 174 172 170 166 168 171 172 169 165 165 161 161 163 168 172 186 186 181 177 184 168 151 171 168 175 156 127 18 353 26 135 229 131 297 263 255
267 281 290 290 281 267 229 202 186 177 187 183 182 177 174 169 168 169 170 171 169 167 165 162 160 164 168 183 190 200 190 188 185 158 154 177 181 186 157 147 158 306 313 53 34 37 321 311 315
262 267 274 273 267 261 246 208 175 182 189 177 171 169 171 173 167 165 165 167 170 168 167 163 160 165 169 185 189 189 200 194 197 182 178 200 180 179 176 166 177 233 256 64 50 290 286 303 322
239 248 263 264 249 251 246 204 149 163 161 161 164 166 170 171 164 164 165 167 170 171 170 163 163 169 175 185 189 186 202 199 208 211 198 209 194 175 169 175 172 215 211 214 237 242 282 286 301
241 248 248 253 258 262 266 195 143 137 135 151 157 158 164 163 163 166 166 168 172 174 169 164 165 171 178 184 188 187 194 210 210 210 227 211 217 180 158 167 181 206 225 230 213 238 242 237 267
245 254 263 263 264 270 245 170 147 134 138 145 144 150 158 163 165 167 169 172 174 175 171 169 165 172 182 186 185 184 194 217 214 192 217 220 201 176 153 166 180 194 220 242 235 245 265 265 264
252 264 276 273 279 271 266 256 165 145 148 144 146 152 157 162 166 168 169 172 173 176 170 168 166 173 182 185 188 188 190 203 210 204 192 203 210 160 150 168 182 196 201 207 225 240 244 220 230
229 243 258 277 278 259 259 268 182 168 158 149 150 150 160 167 167 165 169 170 171 174 169 170 170 173 179 186 187 187 187 192 194 201 200 193 195 194 189 196 202 210 208 205 218 236 232 240 252
250 243 242 246 257 266 256 234 215 140 158 142 151 143 150 155 156 156 161 168 173 175 172 173 176 179 184 186 180 189 185 188 193 197 198 190 189 195 199 202 206 214 208 208 219 231 228 235 238
Height
1487 1488 1488 1491 1490 1489 1485 1476 1472 1473 1474 1477 1478 1480 1485 1488 1493 1505 1505 1503 1503 1504 1505 1506 1507 1509 1510 1511 1512 1514 1514 1515 1517 1518 1519 1520 1522 1523 1524 1525 1527 1528 1529 1530 1531 1532 1534 1534 1535
1487 1489 1492 1490 1491 1494 1486 1475 1474 1475 1477 1479 1481 1484 1487 1493 1497 1502 1503 1504 1505 1506 1507 1508 1510 1511 1512 1514 1515 1516 1517 1518 1519 1520 1521 1523 1524 1525 1526 1528 1529 1530 1531 1532 1533 1534 1535 1536 1536
1488 1490 1491 1487 1486 1487 1484 1474 1474 1475 1478 1480 1484 1488 1492 1497 1501 1503 1504 1505 1506 1508 1509 1510 1511 1513 1514 1516 1517 1518 1519 1520 1521 1522 1523 1525 1526 1528 1529 1530 1531 1532 1533 1534 1535 1536 1536 1537 1537
1490 1490 1488 1485 1484 1476 1474 1473 1474 1476 1479 1482 1485 1492 1498 1501 1503 1505 1506 1507 1508 1510 1511 1512 1513 1515 1516 1517 1518 1519 1521 1522 1523 1524 1526 1527 1528 1530 1531 1532 1533 1534 1535 1536 1537 1537 1538 1538 1538
1491 1489 1489 1487 1479 1473 1472 1474 1476 1478 1481 1485 1489 1496 1501 1504 1505 1506 1508 1509 1510 1511 1512 1513 1515 1516 1517 1519 1520 1521 1523 1524 1525 1526 1527 1529 1530 1531 1533 1534 1535 1536 1537 1537 1538 1539 1539 1539 1540
1489 1486 1492 1488 1479 1475 1474 1476 1478 1481 1484 1487 1492 1498 1504 1507 1507 1508 1509 1510 1511 1512 1513 1514 1516 1518 1519 1521 1522 1523 1525 1526 1527 1528 1529 1531 1532 1533 1534 1536 1537 1538 1538 1539 1539 1540 1540 1540 1541
1489 1485 1486 1480 1480 1479 1477 1478 1480 1483 1486 1489 1493 1498 1505 1508 1509 1510 1511 1512 1513 1514 1515 1516 1517 1519 1521 1522 1524 1525 1526 1528 1529 1530 1531 1532 1533 1535 1536 1537 1538 1539 1540 1541 1541 1541 1542 1542 1542
1483 1481 1482 1479 1481 1481 1479 1480 1483 1486 1489 1491 1494 1499 1505 1509 1510 1511 1512 1513 1514 1515 1516 1518 1519 1521 1522 1524 1525 1527 1528 1529 1530 1532 1532 1533 1535 1536 1537 1538 1539 1540 1541 1542 1542 1543 1543 1543 1544
1481 1482 1484 1480 1481 1480 1480 1482 1486 1489 1491 1494 1497 1501 1506 1509 1510 1511 1513 1514 1515 1516 1518 1520 1522 1523 1525 1526 1527 1528 1530 1531 1532 1533 1534 1535 1536 1537 1538 1540 1541 1542 1542 1543 1544 1544 1544 1545 1545
1479 1483 1480 1475 1476 1479 1480 1483 1486 1489 1493 1498 1502 1505 1508 1510 1511 1512 1514 1515 1516 1517 1519 1521 1523 1525 1527 1528 1529 1530 1532 1533 1534 1535 1535 1536 1538 1539 1540 1541 1542 1543 1543 1544 1545 1545 1545 1546 1546
1476 1479 1475 1476 1478 1480 1482 1484 1486 1490 1495 1500 1504 1507 1510 1511 1513 1514 1516 1517 1518 1519 1521 1523 1524 1526 1528 1530 1531 1532 1534 1534 1535 1536 1536 1537 1538 1540 1541 1541 1543 1543 1544 1545 1546 1546 1546 1546 1547
1477 1476 1476 1478 1480 1482 1485 1487 1490 1493 1498 1502 1506 1508 1511 1513 1514 1516 1518 1519 1520 1521 1522 1524 1526 1527 1529 1531 1532 1534 1535 1536 1536 1536 1537 1538 1539 1540 1541 1542 1543 1544 1545 1546 1546 1546 1546 1547 1548
1477 1478 1479 1480 1482 1484 1486 1490 1493 1497 1501 1504 1507 1510 1512 1514 1517 1518 1520 1521 1522 1523 1525 1526 1527 1528 1530 1531 1533 1535 1536 1537 1537 1537 1537 1538 1539 1540 1541 1542 1543 1545 1546 1546 1546 1547 1547 1547 1548
1479 1478 1479 1481 1483 1485 1488 1491 1494 1499 1502 1505 1509 1512 1514 1516 1518 1520 1521 1523 1524 1525 1526 1528 1529 1529 1531 1532 1534 1535 1536 1537 1537 1538 1539 1540 1540 1541 1542 1543 1544 1545 1546 1547 1547 1547 1547 1548 1548
1480 1479 1480 1480 1482 1485 1488 1493 1494 1498 1502 1505 1509 1512 1515 1517 1519 1521 1522 1523 1525 1526 1528 1529 1530 1531 1532 1534 1535 1536 1537 1538 1539 1539 1540 1540 1541 1542 1543 1544 1545 1546 1547 1547 1547 1548 1547 1547 1548
1481 1484 1488 1481 1480 1483 1490 1501 1493 1497 1501 1504 1508 1512 1515 1518 1520 1522 1523 1524 1526 1527 1528 1530 1532 1532 1533 1534 1536 1537 1538 1539 1540 1540 1541 1541 1542 1543 1543 1544 1545 1546 1546 1547 1547 1547 1547 1547 1548
1487 1492 1489 1482 1478 1480 1487 1495 1491 1495 1498 1503 1506 1510 1514 1517 1520 1522 1523 1525 1526 1527 1529 1530 1532 1533 1534 1535 1536 1538 1539 1539 1540 1541 1541 1542 1542 1543 1544 1544 1545 1546 1546 1547 1547 1547 1547 1547 1548
1493 1488 1487 1485 1478 1478 1483 1489 1489 1492 1496 1500 1504 1508 1512 1516 1519 1521 1523 1525 1527 1528 1529 1531 1532 1533 1535 1536 1537 1538 1539 1540 1541 1542 1542 1542 1543 1543 1544 1545 1545 1546 1546 1547 1547 1547 1547 1547 1547
1482 1485 1488 1481 1475 1478 1483 1485 1486 1489 1493 1497 1501 1506 1510 1514 1518 1520 1523 1525 1526 1528 1529 1531 1532 1533 1535 1536 1537 1538 1539 1540 1542 1542 1542 1543 1543 1544 1544 1545 1545 1546 1546 1546 1547 1547 1547 1547 1548
1480 1485 1485 1479 1472 1476 1482 1484 1482 1485 1490 1494 1498 1503 1507 1512 1516 1519 1522 1524 1525 1527 1529 1530 1532 1533 1534 1536 1537 1538 1540 1541 1542 1543 1543 1543 1544 1544 1545 1545 1545 1546 1546 1546 1546 1547 1547 1547 1548
1480 1482 1481 1479 1473 1472 1480 1488 1484 1482 1486 1491 1495 1499 1504 1508 1513 1517 1520 1522 1524 1526 1527 1529 1531 1532 1534 1535 1537 1539 1540 1541 1542 1542 1543 1543 1544 1545 1545 1545 1545 1545 1546 1546 1546 1546 1546 1547 1548
1483 1473 1472 1474 1479 1484 1481 1503 1489 1484 1485 1487 1491 1495 1500 1504 1509 1514 1517 1520 1522 1524 1526 1528 1530 1531 1533 1535 1536 1538 1539 1540 1541 1542 1542 1543 1544 1544 1545 1545 1545 1545 1545 1546 1546 1546 1546 1547 1547
1475 1469 1472 1474 1478 1482 1479 1495 1494 1480 1485 1484 1486 1491 1496 1501 1505 1510 1514 1518 1520 1523 1525 1526 1528 1530 1532 1533 1535 1537 1538 1539 1540 1541 1542 1542 1543 1543 1544 1544 1544 1545 1545 1545 1545 1546 1546 1546 1547
1469 1471 1474 1475 1481 1497 1483 1490 1497 1482 1478 1478 1482 1488 1494 1498 1503 1507 1511 1515 1519 1521 1523 1525 1526 1528 1530 1532 1534 1535 1536 1538 1539 1540 1540 1541 1542 1542 1542 1543 1543 1544 1544 1544 1545 1545 1545 1545 1546
1471 1482 1501 1506 1504 1498 1475 1482 1487 1471 1469 1472 1478 1485 1490 1495 1500 1505 1509 1513 1516 1519 1522 1523 1525 1526 1528 1530 1532 1533 1535 1536 1537 1538 1539 1540 1541 1541 1541 1542 1542 1543 1543 1544 1544 1544 1545 1545 1545
1473 1478 1499 1514 1513 1496 1479 1484 1475 1465 1468 1472 1476 1482 1487 1493 1498 1503 1506 1510 1514 1517 1519 1521 1523 1524 1526 1528 1530 1531 1533 1534 1536 1537 1538 1539 1539 1540 1540 1541 1541 1542 1542 1543 1543 1543 1543 1544 1544
1473 1473 1468 1483 1491 1498 1490 1480 1471 1464 1468 1471 1475 1480 1485 1490 1495 1500 1504 1508 1511 1514 1516 1519 1521 1522 1524 1526 1528 1529 1531 1532 1534 1535 1536 1537 1538 1538 1538 1539 1539 1540 1541 1541 1542 1542 1542 1542 1542
1465 1467 1471 1483 1504 1512 1501 1490 1485 1474 1471 1470 1474 1478 1483 1488 1493 1497 1502 1505 1508 1511 1513 1517 1519 1520 1522 1524 1526 1527 1528 1530 1531 1533 1534 1535 1536 1537 1537 1537 1538 1538 1539 1539 1540 1540 1541 1541 1541
1468 1470 1473 1477 1482 1503 1514 1503 1471 1470 1469 1471 1473 1477 1481 1485 1490 1494 1499 1502 1506 1509 1511 1514 1516 1518 1520 1522 1524 1525 1526 1527 1529 1530 1532 1533 1533 1534 1535 1535 1536 1536 1537 1538 1538 1538 1539 1539 1539
1461 1464 1469 1486 1490 1485 1495 1495 1464 1465 1468 1470 1474 1477 1481 1484 1488 1492 1496 1500 1503 1506 1509 1512 1514 1516 1518 1520 1521 1523 1524 1526 1527 1528 1529 1530 1531 1532 1533 1533 1534 1534 1535 1535 1536 1536 1536 1537 1537